Hourly Data Report for August 28, 2015

All times are specified in Local Standard Time (LST). Add 1 hour to adjust for Daylight Saving Time where and when it is observed.

Metadata including Station Name, Province, Latitude, Longitude, Elevation, Climate ID, WMO ID, TC ID
MONTREAL MIRABEL INTL A
QUEBEC
Latitude: 45°40'50.000" N Longitude: 74°02'19.000" W Elevation: 82.30 m
Climate ID: 7034900 WMO ID: TC ID: YMX
Hourly Data Report for August 28, 2015
Temp Definition
°C

Dew Point Temp Definition
°C

Rel Hum Definition
%

Wind Dir Definition
10's deg
Wind Spd Definition
km/h

Visibility Definition
km

Stn Press Definition
kPa

Hmdx Definition

Wind Chill Definition

Weather Definition

00:00 Legend Double Dagger 13.4 11.3 87 27 8 40.2 101.03 LegendNANA
01:00 Legend Double Dagger 13.2 11.5 89 26 5 40.2 101.01 Clear
02:00 Legend Double Dagger 13.0 11.6 91 25 7 40.2 101.01 LegendNANA
03:00 Legend Double Dagger 12.5 11.4 93 25 6 40.2 101.05 LegendNANA
04:00 Legend Double Dagger 11.9 11.1 95 26 7 40.2 101.06 Clear
05:00 Legend Double Dagger 11.6 11.1 97 24 7 40.2 101.08 LegendNANA
06:00 Legend Double Dagger 11.8 11.2 96 26 8 40.2 101.12 LegendNANA
07:00 Legend Double Dagger 12.9 12.0 94 27 9 40.2 101.14 Clear
08:00 Legend Double Dagger 14.9 13.0 88 24 8 48.3 101.19 LegendNANA
09:00 Legend Double Dagger 17.2 13.2 77 25 10 56.3 101.20 LegendNANA
10:00 Legend Double Dagger 19.0 12.8 67 24 11 72.4 101.19 Mainly Clear
11:00 Legend Double Dagger 20.3 12.6 61 23 16 72.4 101.17 LegendNANA
12:00 Legend Double Dagger 20.7 12.8 60 25 14 72.4 101.12 LegendNANA
13:00 Legend Double Dagger 21.2 12.7 58 24 16 72.4 101.10 Mainly Clear
14:00 Legend Double Dagger 20.9 13.2 61 24 14 72.4 101.06 LegendNANA
15:00 Legend Double Dagger 20.5 12.8 61 22 17 72.4 101.05 LegendNANA
16:00 Legend Double Dagger 20.5 13.3 63 26 9 72.4 101.02 Mainly Clear
17:00 Legend Double Dagger 20.0 13.8 67 27 9 72.4 101.02 LegendNANA
18:00 Legend Double Dagger 18.7 13.2 70 36 2 72.4 101.02 LegendNANA
19:00 Legend Double Dagger 16.1 13.3 83 36 3 40.2 101.04 Clear
20:00 Legend Double Dagger 16.0 13.3 84 26 5 40.2 101.14 LegendNANA
21:00 Legend Double Dagger 15.3 13.0 86 23 6 40.2 101.12 LegendNANA
22:00 Legend Double Dagger 14.9 13.0 88 24 5 40.2 101.10 Clear
23:00 Legend Double Dagger 13.8 12.7 93 22 6 40.2 101.10 LegendNANA

Notes on Data Quality.

Legend
  • E = Estimated
  • M = Missing
  • NA = Not Available
  • ‡ = Partner data that is not subject to review by the National Climate Archives